Printer-friendly version

IAU Minor Planet Center

Minor Planet Center

MPEC 2004-G25 : 2004 FU64

The following Minor Planet Electronic Circular may be linked-to from your own Web pages, but must not otherwise be redistributed electronically.


Read MPEC 2004-G24 Read MPEC 2004-G26


M.P.E.C. 2004-G25                                Issued 2004 Apr. 13, 00:46 UT

     The Minor Planet Electronic Circulars contain information on unusual
         minor planets and routine data on comets.  They are published
   on behalf of Commission 20 of the International Astronomical Union by the
          Minor Planet Center, Smithsonian Astrophysical Observatory,
                          Cambridge, MA 02138, U.S.A.

         Supported in part by the Steven and Michele Kirsch Foundation
             Prepared using the Tamkin Foundation Computer Network

                              MPC@CFA.HARVARD.EDU
          URL http://cfa-www.harvard.edu/iau/mpc.html  ISSN 1523-6714

                                   2004 FU64

Additional Observations:
     K04F64U  C2004 04 12.33937 13 32 50.01 -13 34 34.6          18.5 V EG025691
     K04F64U  C2004 04 12.36792 13 32 45.91 -13 34 59.7          18.6 V EG025691
     K04F64U  C2004 04 12.39656 13 32 41.81 -13 35 24.7          18.6 V EG025691
     K04F64U  C2004 04 12.44934 13 32 34.27 -13 36 10.4                 EG025291
     K04F64U  C2004 04 12.45352 13 32 33.67 -13 36 14.0                 EG025291
     K04F64U  C2004 04 12.45783 13 32 33.07 -13 36 17.7                 EG025291
     K04F64U  C2004 04 12.92927 13 31 27.83 -13 43 13.1          18.7 R EG025620
     K04F64U  C2004 04 12.93628 13 31 26.85 -13 43 19.1          18.7 R EG025620
     K04F64U  C2004 04 12.94329 13 31 25.80 -13 43 25.4          18.5 R EG025620

Observer details:
291 LPL/Spacewatch II.  Observer R. S. McMillan.  1.8-m f/2.7 reflector + CCD.
620 Observatorio Astronomico de Mallorca.  Observers S. Sanchez, R. Stoss,
    J. Nomen.  0.30-m f/9 Schmidt-Cassegrain + CCD.
691 Steward Observatory, Kitt Peak.  Observer A. F. Tubbiolo.  0.9-m f/3
    reflector + CCD.

Orbital elements:
2004 FU64
Epoch 2004 Mar. 16.0 TT = JDT 2453080.5                 MPC
M 289.35702              (2000.0)            P               Q
n   0.39477981     Peri.  286.30380     +0.57415129     +0.80467961
a   1.8403458      Node    21.01246     -0.49217532     +0.48672376
e   0.3684811      Incl.   24.92840     -0.65430402     +0.33998632
P   2.50           H   18.0           G   0.15
From 17 observations 2004 Mar. 19-Apr. 12.

Ephemeris:
2004 FU64                a,e,i = 1.84, 0.37, 25                  q = 1.1622
Date    TT    R. A. (2000) Decl.     Delta      r     Elong.  Phase     V
2004 04 05    13 48.52   -11 49.4    0.779    1.766   166.1     7.8    19.2
2004 04 15    13 26.52   -14 13.4    0.716    1.718   175.2     2.8    18.7
2004 04 25    13 01.00   -16 39.5    0.680    1.668   162.7    10.3    18.9
2004 05 05    12 35.56   -18 57.7    0.671    1.618   148.1    19.3    19.2
2004 05 15    12 13.75   -21 04.4    0.684    1.568   134.4    27.4    19.4
2004 05 25    11 57.86   -23 03.9    0.711    1.518   122.4    34.3    19.6
2004 06 04    11 48.55   -25 04.8    0.746    1.468   112.1    39.8    19.8
2004 06 14    11 45.42   -27 14.0    0.783    1.420   103.5    44.1    19.9
2004 06 24    11 47.82   -29 36.5    0.817    1.373    96.4    47.3    20.0
2004 07 04    11 55.13   -32 14.8    0.845    1.329    90.6    49.9    20.1
2004 07 14    12 06.99   -35 09.3    0.866    1.289    86.0    51.9    20.2
2004 07 24    12 23.47   -38 19.3    0.879    1.252    82.4    53.5    20.2
2004 08 03    12 45.02   -41 42.1    0.884    1.221    79.7    54.9    20.2
2004 08 13    13 12.62   -45 11.3    0.881    1.195    77.9    56.0    20.1
2004 08 23    13 47.89   -48 36.5    0.871    1.177    77.0    56.9    20.1
2004 09 02    14 32.73   -51 38.1    0.858    1.165    76.8    57.4    20.1
2004 09 12    15 28.54   -53 44.1    0.844    1.162    77.3    57.6    20.0
2004 09 22    16 34.06   -54 13.8    0.834    1.167    78.3    57.3    20.0
2004 10 02    17 43.43   -52 31.9    0.832    1.180    79.6    56.5    20.0
2004 10 12    18 48.62   -48 32.4    0.842    1.200    80.9    55.2    20.0
2004 10 22    19 44.73   -42 45.0    0.868    1.227    82.0    53.5    20.1
2004 11 01    20 31.17   -35 56.0    0.913    1.259    82.6    51.4    20.2
2004 11 11    21 09.71   -28 48.4    0.976    1.297    82.5    49.2    20.3
2004 11 21    21 42.48   -21 51.9    1.056    1.338    81.7    46.9    20.5
2004 12 01    22 11.22   -15 22.8    1.151    1.383    80.2    44.6    20.7
2004 12 11    22 37.18   -09 27.4    1.259    1.430    78.1    42.4    20.9
2004 12 21    23 01.30   -04 05.6    1.377    1.478    75.5    40.1    21.1
2004 12 31    23 24.17   +00 45.4    1.501    1.528    72.5    37.9    21.3
2005 01 10    23 46.24   +05 09.3    1.631    1.578    69.2    35.6    21.5
2005 01 20    00 07.84   +09 09.8    1.764    1.628    65.7    33.4    21.7
2005 01 30    00 29.20   +12 50.0    1.897    1.678    62.0    31.2    21.9

Timothy B. Spahr             (C) Copyright 2004 MPC           M.P.E.C. 2004-G25

Read MPEC 2004-G24 Read MPEC 2004-G26


Our Web policy. Index to the CBAT/MPC/ICQ pages.


Valid HTML 4.01!